Temp
101 103 105 104 103 103 102 102 101 99 94 90 90 90 89 90 89 92 93 91 90 90 90 91 86 88 88 89 87 87 85 86 88
100 101 103 104 105 105 104 102 100 99 96 92 91 92 90 89 90 90 92 91 90 92 91 94 88 86 83 87 87 86 85 86 84
100 101 101 104 105 105 106 105 104 101 98 93 93 95 93 92 91 90 91 91 90 91 92 92 87 85 81 81 86 85 83 83 81
102 103 103 104 105 105 106 105 105 103 100 97 96 96 95 93 92 92 90 91 90 90 90 88 86 84 83 82 83 84 83 81 80
102 103 104 104 105 104 103 103 103 102 100 100 98 98 95 94 92 91 91 90 90 91 88 87 86 84 83 83 84 83 81 80 80
98 99 101 103 102 100 101 101 98 99 99 99 100 98 98 95 92 90 90 90 91 90 87 86 85 83 82 83 82 80 80 78 77
98 98 98 100 102 100 98 98 95 94 96 97 97 97 97 93 90 89 89 90 89 89 85 84 82 82 81 81 81 79 76 76 71
95 95 96 96 97 96 95 95 93 92 93 92 93 92 91 91 89 89 89 89 87 88 83 82 83 81 79 80 80 80 75 73 67
91 92 93 93 95 95 94 94 92 91 90 90 91 89 89 90 88 87 86 85 85 85 83 81 80 79 78 78 83 66 69 68 67
92 92 92 91 93 98 97 96 93 90 89 90 89 88 89 89 88 84 84 85 84 82 79 79 76 79 77 78 79 66 67 70 77
92 92 92 92 96 99 99 99 97 93 92 89 85 81 81 83 81 85 83 84 83 80 80 78 77 77 78 77 75 65 66 70 79
94 94 95 96 99 100 97 95 94 92 91 89 81 78 73 75 80 80 80 81 82 79 80 79 80 79 77 77 70 63 65 68 79
95 96 96 96 99 101 99 98 98 92 90 89 87 87 84 81 83 83 81 82 81 80 81 80 81 76 77 74 72 62 63 67 81
96 96 96 98 98 97 94 94 94 92 92 91 92 92 90 86 83 81 80 81 79 78 79 79 78 76 76 75 72 67 61 63 79
95 94 96 97 95 94 97 96 93 90 90 92 92 89 86 87 85 82 80 79 76 73 73 74 74 75 74 74 73 66 60 61 61
95 95 96 97 95 94 95 95 92 89 89 90 90 90 84 83 81 78 73 74 72 70 70 68 69 75 73 72 74 73 62 60 61
94 95 95 96 94 92 90 92 91 88 88 88 86 85 81 78 75 72 71 72 70 68 68 71 72 74 73 71 74 73 71 71 70
93 93 93 93 91 89 89 91 90 89 87 85 84 85 78 71 70 68 69 69 69 69 69 68 73 76 73 74 72 73 68 70 73
92 90 89 88 88 88 89 89 89 87 85 83 81 78 71 69 68 67 67 67 63 54 57 56 54 55 68 74 64 57 57 55 56
83 89 89 88 88 88 87 87 86 85 83 81 80 78 72 69 67 67 67 65 64 63 58 53 54 52 54 54 56 52 51 52 52
MSLP
998.96 999.25 999.95 1000.87 1002.07 1003.01 1003.90 1004.99 1005.99 1006.99 1008.13 1009.25 1010.00 1010.75 1011.28 1011.84 1012.36 1012.52 1012.74 1012.98 1013.17 1013.74 1014.18 1014.37 1014.85 1015.26 1015.55 1015.82 1016.29 1016.35 1016.69 1016.91 1016.88
999.20 999.58 1000.02 1000.76 1001.47 1002.50 1003.34 1004.47 1005.40 1006.43 1007.50 1008.71 1009.41 1009.94 1010.74 1011.27 1011.78 1011.86 1011.83 1012.44 1013.19 1013.49 1013.67 1013.66 1014.52 1015.05 1015.39 1015.73 1016.23 1016.33 1016.82 1016.97 1017.43
999.54 1000.02 1000.48 1000.74 1001.17 1001.83 1002.64 1003.59 1004.72 1005.67 1006.77 1007.87 1008.54 1009.01 1009.88 1010.43 1010.90 1011.35 1011.63 1012.22 1012.66 1012.87 1013.17 1013.66 1014.42 1015.20 1015.48 1015.73 1016.28 1016.59 1017.07 1017.34 1017.89
999.25 999.80 1000.43 1000.80 1001.27 1001.87 1002.32 1003.12 1003.84 1004.76 1005.95 1006.88 1007.48 1007.99 1008.71 1009.49 1010.14 1010.95 1011.73 1012.01 1012.57 1012.93 1013.38 1013.99 1014.45 1015.22 1015.65 1015.83 1016.15 1016.74 1017.23 1017.68 1018.27
1000.00 1000.10 1000.24 1000.81 1001.12 1001.95 1002.55 1002.97 1003.56 1004.10 1005.19 1005.93 1006.79 1007.14 1007.97 1008.90 1009.71 1010.36 1010.95 1011.55 1012.19 1012.79 1013.33 1013.94 1014.29 1015.04 1015.55 1015.95 1016.20 1016.72 1017.24 1017.68 1018.10
1000.92 1000.91 1001.09 1001.19 1001.70 1002.44 1002.78 1003.12 1003.60 1004.00 1004.75 1005.46 1005.94 1006.70 1007.52 1008.28 1009.17 1009.91 1010.49 1011.19 1011.69 1012.26 1013.16 1013.77 1014.37 1014.91 1015.40 1015.76 1016.18 1016.89 1017.53 1018.07 1018.53
1001.36 1001.51 1001.79 1001.88 1002.07 1002.64 1003.29 1003.49 1004.06 1004.53 1004.99 1005.49 1005.90 1006.31 1006.78 1007.39 1008.24 1008.93 1009.63 1010.24 1011.04 1011.94 1012.67 1013.57 1014.34 1014.91 1015.34 1015.86 1016.39 1017.17 1017.99 1018.37 1018.92
1002.07 1002.26 1002.48 1002.88 1002.82 1003.20 1003.72 1003.95 1004.49 1005.00 1005.33 1005.62 1005.80 1005.93 1006.55 1007.04 1008.00 1009.02 1009.73 1010.16 1010.87 1011.53 1012.62 1013.25 1014.10 1014.89 1015.54 1016.27 1016.88 1017.30 1018.00 1018.69 1019.18
1002.93 1003.23 1003.51 1003.79 1003.65 1003.54 1003.63 1003.97 1004.54 1004.89 1005.12 1005.47 1006.13 1006.76 1007.01 1007.41 1007.96 1008.53 1009.08 1009.71 1010.77 1011.54 1012.55 1013.32 1013.86 1014.82 1015.51 1016.06 1016.48 1017.53 1018.13 1018.69 1019.27
1003.24 1003.61 1004.07 1004.34 1004.19 1003.39 1003.55 1003.81 1004.29 1004.59 1005.09 1006.01 1007.07 1008.01 1008.77 1009.43 1009.60 1009.94 1010.21 1010.17 1010.32 1011.03 1012.02 1013.23 1013.97 1014.45 1015.11 1015.72 1016.50 1017.80 1018.52 1019.02 1018.95
1003.51 1004.01 1004.37 1004.52 1004.17 1003.69 1003.74 1003.75 1003.94 1004.55 1005.22 1006.13 1006.90 1007.41 1008.46 1009.57 1009.36 1009.16 1009.90 1010.11 1010.25 1010.88 1011.54 1012.40 1013.09 1014.08 1014.71 1015.38 1016.64 1017.77 1018.37 1018.71 1018.75
1003.79 1004.22 1004.37 1004.36 1003.95 1003.72 1003.91 1004.24 1004.31 1004.76 1005.24 1006.08 1006.95 1007.53 1006.66 1007.47 1007.86 1008.27 1009.68 1009.75 1010.02 1010.84 1011.39 1011.98 1012.33 1013.14 1013.83 1014.45 1016.27 1017.32 1018.01 1018.46 1018.51
1003.74 1004.14 1004.53 1004.29 1003.83 1003.43 1003.77 1003.93 1003.92 1004.56 1005.01 1005.66 1006.15 1006.66 1007.67 1008.28 1007.82 1008.39 1009.01 1009.32 1009.86 1010.34 1010.63 1011.03 1011.51 1012.75 1013.39 1013.80 1014.67 1016.92 1017.32 1018.03 1017.88
1003.69 1004.12 1004.23 1004.26 1004.02 1003.91 1004.42 1004.65 1004.57 1004.48 1004.56 1004.77 1005.20 1005.66 1006.15 1006.85 1007.43 1008.13 1008.53 1008.99 1009.43 1009.29 1009.84 1010.09 1010.60 1011.45 1012.52 1013.07 1013.08 1015.54 1016.84 1017.20 1017.24
1003.73 1003.92 1004.01 1004.12 1004.17 1004.23 1004.11 1004.12 1004.64 1004.67 1004.63 1004.69 1004.99 1005.36 1005.62 1005.92 1006.53 1007.18 1007.54 1008.28 1009.31 1010.22 1010.29 1009.80 1012.26 1011.77 1012.11 1012.88 1013.46 1014.38 1015.80 1016.78 1016.99
1003.75 1003.86 1004.01 1004.14 1004.16 1004.26 1004.21 1004.20 1004.81 1004.97 1004.92 1005.05 1005.03 1005.01 1005.50 1006.00 1006.59 1007.04 1007.62 1008.15 1008.99 1009.79 1010.35 1009.11 1011.43 1011.63 1011.89 1012.14 1012.79 1013.74 1014.39 1016.35 1016.96
1003.70 1003.90 1004.04 1004.17 1004.37 1004.44 1004.54 1004.62 1004.89 1005.25 1005.25 1005.13 1005.36 1005.34 1005.73 1006.19 1006.61 1007.13 1007.43 1007.89 1008.59 1009.11 1009.56 1010.37 1009.40 1009.55 1010.34 1011.20 1012.27 1013.06 1013.74 1015.56 1016.84
1003.87 1004.18 1004.35 1004.56 1004.64 1004.62 1004.60 1004.56 1004.61 1004.91 1005.02 1005.21 1005.23 1005.16 1005.99 1006.52 1006.94 1007.38 1007.81 1008.12 1008.40 1008.62 1009.03 1009.20 1009.50 1009.39 1010.35 1010.31 1011.41 1012.37 1012.98 1013.49 1015.49
1003.99 1004.44 1004.83 1004.86 1004.78 1004.62 1004.36 1004.25 1004.32 1004.64 1004.98 1005.07 1005.18 1005.50 1006.24 1006.67 1007.09 1007.57 1007.90 1008.20 1009.02 1009.54 1009.64 1009.92 1010.35 1010.50 1010.45 1011.24 1011.55 1011.87 1012.82 1013.87 1014.90
1004.28 1004.65 1004.49 1004.47 1004.42 1004.29 1004.14 1003.99 1004.13 1004.49 1004.80 1005.06 1005.19 1005.45 1006.13 1006.59 1007.03 1007.34 1007.59 1008.16 1008.75 1009.41 1010.37 1010.58 1010.76 1011.02 1011.15 1011.35 1011.82 1012.32 1013.65 1014.65 1015.38
Wind_Speed
6 10 15 18 20 17 17 17 17 16 16 15 16 16 15 12 13 10 10 10 4 7 7 7 10 8 6 4 5 4 3 4 2
10 9 11 15 19 18 18 17 17 17 15 15 16 17 13 13 12 13 10 7 8 8 7 6 9 8 6 7 6 5 4 4 2
11 10 9 12 14 17 16 18 18 18 17 17 17 17 15 13 14 12 9 9 9 9 8 6 10 8 6 6 7 5 4 4 3
10 13 10 10 9 9 13 15 18 18 17 18 17 17 16 14 13 13 12 11 10 9 8 8 10 11 9 7 7 6 4 5 4
8 2 5 5 7 8 9 13 15 17 16 17 16 16 13 15 13 11 14 12 12 11 10 11 11 11 11 10 8 8 6 6 7
6 4 5 6 5 5 7 10 10 11 14 15 16 14 16 15 14 13 12 12 11 11 10 11 11 11 11 11 8 8 6 5 5
9 7 5 6 2 7 6 7 9 9 10 13 12 14 16 14 15 14 13 12 12 12 11 10 9 10 10 8 10 9 8 8 6
9 8 10 8 9 4 4 7 8 10 10 10 11 12 12 13 13 11 11 11 11 11 10 10 11 10 9 10 10 8 11 9 6
10 9 8 8 7 5 4 6 9 10 11 11 9 9 10 10 12 13 13 13 13 12 13 9 9 10 11 11 9 17 13 11 7
7 7 6 5 6 7 6 1 7 10 11 8 7 4 5 7 6 9 10 12 13 14 13 13 11 11 10 10 10 16 15 15 12
6 6 5 5 6 7 8 8 2 6 7 8 7 9 8 3 7 9 11 13 13 14 12 13 12 13 13 11 11 18 15 13 10
6 5 4 6 7 8 6 4 4 4 5 6 7 7 8 21 13 10 13 14 14 13 12 13 12 14 14 14 14 17 14 11 11
6 4 4 6 7 7 7 7 4 5 5 6 8 10 14 12 10 12 14 14 15 14 14 14 12 14 12 14 17 15 17 14 9
5 3 4 7 6 6 1 7 8 8 7 6 5 10 12 13 14 13 11 13 13 15 14 14 14 16 14 14 19 18 16 17 8
3 6 8 9 6 6 7 2 5 7 8 7 6 4 6 11 12 11 12 16 14 11 10 9 13 13 11 9 13 17 15 16 12
5 7 7 9 8 7 9 5 5 9 8 8 10 8 6 9 13 13 13 16 16 12 11 9 11 12 11 10 10 12 22 15 7
6 7 7 9 9 10 10 8 5 7 8 8 8 10 5 6 8 10 12 11 12 12 13 14 14 13 13 12 11 11 13 13 10
6 7 7 9 10 10 10 9 7 8 7 7 9 9 7 6 6 9 10 10 9 10 10 8 10 11 9 12 13 11 11 19 14
6 7 9 10 11 12 13 11 8 5 6 7 7 5 4 5 6 8 7 8 5 11 4 4 4 3 6 9 2 14 21 18 18
5 9 11 11 12 12 11 9 10 4 5 5 5 6 5 4 6 7 7 6 7 9 3 4 5 2 3 1 9 19 20 17 14
Wind_Direction
139 173 180 187 183 198 180 188 187 192 179 187 191 196 204 201 206 211 215 195 187 193 203 201 143 176 174 173 169 159 129 168 74
127 148 162 185 184 191 188 187 191 194 192 192 196 193 193 197 200 219 204 200 189 203 208 190 159 170 162 162 184 158 147 94 128
127 138 158 173 190 194 194 188 192 195 191 191 199 196 191 196 199 203 209 196 194 219 186 192 163 168 159 160 175 163 214 152 135
139 148 170 161 176 199 194 202 197 195 192 191 198 200 188 196 199 199 204 204 197 217 188 188 173 180 175 167 164 159 189 59 119
65 38 133 156 169 178 213 200 210 197 196 199 203 197 185 193 195 196 195 206 197 199 187 191 181 180 179 177 175 164 167 188 130
96 118 137 167 155 166 199 203 212 214 195 208 201 201 195 192 193 195 197 192 197 191 184 189 179 179 185 179 173 147 149 124 135
92 83 49 49 189 155 213 212 200 216 202 210 210 197 201 190 188 188 192 183 178 187 169 178 171 185 180 164 156 157 150 144 122
91 75 59 45 26 31 226 213 200 217 215 216 204 206 199 192 178 181 186 184 174 177 163 171 172 170 154 167 175 159 149 137 116
97 81 60 35 17 17 355 223 213 221 222 211 216 212 207 196 178 182 181 169 178 168 170 168 155 167 166 172 187 117 138 141 126
85 66 55 20 337 338 15 62 215 224 221 215 214 201 242 256 233 196 201 180 170 167 159 157 171 171 168 164 137 142 152 165 164
88 64 33 355 322 324 347 357 322 226 228 209 173 165 84 332 244 202 198 190 178 163 167 166 161 167 171 161 142 161 173 204 166
88 66 24 348 323 330 329 323 313 284 246 211 173 196 175 199 210 194 210 197 183 168 166 166 173 165 165 165 140 162 174 196 174
105 78 17 345 354 316 344 320 319 292 270 207 218 216 199 205 216 219 193 189 180 170 170 173 164 163 170 156 145 171 175 199 190
65 45 349 338 3 7 70 317 316 303 294 282 245 211 208 200 199 202 186 193 179 175 179 163 164 163 170 171 149 167 185 202 217
347 343 341 346 343 348 321 219 278 288 299 311 296 267 264 214 202 180 187 175 161 168 150 156 161 157 161 166 145 157 184 207 206
313 326 332 324 327 323 315 13 346 309 310 306 301 278 238 191 173 172 166 176 165 161 157 168 168 176 180 167 161 166 163 205 168
329 324 321 326 328 326 330 327 311 287 293 293 279 269 226 209 173 184 181 178 180 172 174 188 181 178 181 170 173 171 161 184 190
307 327 325 329 321 313 311 298 292 293 299 298 268 262 201 180 181 184 181 191 191 186 194 192 188 189 193 177 181 184 178 162 178
328 322 324 306 307 304 307 304 295 290 282 275 264 241 182 185 182 187 192 191 161 43 343 194 77 345 205 199 173 152 154 154 142
309 280 291 311 311 303 293 287 273 274 255 251 255 253 202 191 203 189 195 175 184 185 71 73 80 16 276 320 146 138 139 138 150